CW0880 Weather Reports


time (UTC)temp
C
wind
direction
speed
KPH
gust
KPH
rain 1hr
cm
rain 24hr
cm
rain mn
cm
humidity
%
barometer
mb
20260504193956 20 160 6.4 12.9 0.00 0.00 0.00 48 1009.9
20260504192455 22 266 11.3 19.3 0.00 0.00 0.00 35 1010.0
20260504190953 22 230 16.1 24.1 0.00 0.00 0.00 35 1010.1
20260504185449 22 230 11.3 17.7 0.00 0.00 0.00 36 1010.5
20260504183948 22 220 4.8 17.7 0.00 0.00 0.00 35 1010.7
20260504182446 21 203 9.7 17.7 0.00 0.00 0.00 36 1010.5
20260504180944 21 254 3.2 20.9 0.00 0.00 0.00 38 1010.8
20260504175443 20 253 9.7 20.9 0.00 0.00 0.00 39 1011.5
20260504173941 20 234 8.0 20.9 0.00 0.00 0.00 40 1011.3
20260504172437 20 248 4.8 17.7 0.00 0.00 0.00 40 1011.4
20260504170933 19 235 14.5 27.4 0.00 0.00 0.00 41 1011.5
20260504150906 17 242 17.7 20.9 0.00 0.00 0.00 47 1013.3
20260504140852 15 242 17.7 22.5 0.00 0.00 0.00 56 1013.4
20260504080747 11 245 6.4 12.9 0.00 0.00 0.00 61 1013.6
20260504050709 11 258 11.3 14.5 0.00 0.00 0.00 66 1013.0
20260504045203 11 252 9.7 12.9 0.00 0.00 0.00 66 1013.1
20260504043701 11 249 14.5 19.3 0.00 0.00 0.00 62 1013.0
20260504042158 11 255 9.7 17.7 0.00 0.00 0.00 61 1012.8
20260504040653 11 251 6.4 12.9 0.00 0.00 0.00 65 1012.7
20260504035149 11 244 9.7 12.9 0.00 0.00 0.00 64 1012.6
20260504033647 12 249 14.5 16.1 0.00 0.00 0.00 62 1012.7
20260504032144 12 254 4.8 9.7 0.00 0.00 0.00 63 1012.6
20260504030640 12 244 9.7 11.3 0.00 0.00 0.00 67 1012.6
20260504025136 12 257 9.7 12.9 0.00 0.00 0.00 65 1012.5
20260504023632 12 253 9.7 11.3 0.00 0.00 0.00 65 1012.4
20260504022132 12 245 6.4 11.3 0.00 0.00 0.00 63 1012.3
20260504020630 13 237 6.4 14.5 0.00 0.00 0.00 54 1012.5
20260504015131 13 236 8.0 12.9 0.00 0.00 0.00 58 1012.4
20260504013627 13 254 6.4 8.0 0.00 0.00 0.00 57 1012.3
20260504012125 13 255 4.8 9.7 0.00 0.00 0.00 45 1011.9
20260504010620 13 239 3.2 9.7 0.00 0.00 0.00 44 1011.8
20260504005115 13 237 3.2 6.4 0.00 0.00 0.00 45 1011.7
20260504003613 13 261 6.4 9.7 0.00 0.00 0.00 47 1011.5
20260504002110 14 273 6.4 11.3 0.00 0.00 0.00 46 1011.4
20260504000606 14 242 8.0 9.7 0.00 0.00 0.00 41 1011.2
20260503235104 15 258 9.7 9.7 0.00 0.00 0.00 38 1010.9
20260503233602 15 244 11.3 19.3 0.00 0.00 0.00 42 1010.7
20260503232058 16 259 4.8 19.3 0.00 0.00 0.00 29 1010.5
20260503230555 16 81 0.0 16.1 0.00 0.00 0.00 28 1010.5
20260503225050 16 321 3.2 11.3 0.00 0.00 0.00 28 1010.6
20260503223550 17 340 9.7 12.9 0.00 0.00 0.00 26 1010.4
20260503222047 16 1 6.4 22.5 0.00 0.00 0.00 26 1010.4
20260503220543 16 4 4.8 32.2 0.00 0.00 0.00 26 1010.6
20260503215040 16 324 6.4 27.4 0.00 0.00 0.00 26 1010.7
20260503213538 16 350 11.3 30.6 0.00 0.00 0.00 26 1010.5
20260503212036 16 341 12.9 22.5 0.00 0.00 0.00 27 1010.3
20260503210531 16 270 6.4 22.5 0.00 0.00 0.00 28 1010.4
20260503205026 16 15 9.7 24.1 0.00 0.00 0.00 27 1010.0
20260503203522 16 290 4.8 14.5 0.00 0.00 0.00 28 1010.3
20260503202021 15 265 14.5 19.3 0.00 0.00 0.00 28 1010.4
20260503200518 16 289 17.7 19.3 0.00 0.00 0.00 29 1010.6